GORIZONT 16 1 19397U 88071A 21056.61686064 -.00000295 00000-0 00000-0 0 9991 2 19397 13.9005 344.5200 0017163 37.3392 140.8857 0.99987814118864 SL-12 R/B(2) 1 19400U 88071D 21055.84285416 .00000116 00000-0 00000-0 0 9997 2 19400 13.6666 343.8845 0016030 176.7025 314.8374 1.00541114113212